• en Suisse
  • Liste des pays
  • À 7 jours
  • Température de l'eau
  • Carte satellitaire
  • Carte météo
  • Widgets météo
  • user-avatar
    Se connecter

    Météo par heure à Kirkenes

    Ce jour, 20 Juillet, Vendredi

    Heure Température Précipitation Vent Pression Humidité
    00:00 +23°C° 0 mm 5 m/s 751 mmHg 56%
    01:00 +22°C° 0 mm 5 m/s 751 mmHg 58%
    02:00 +21°C° 0 mm 5 m/s 751 mmHg 59%
    03:00 +21°C° 0 mm 5 m/s 751 mmHg 59%
    04:00 +22°C° 0 mm 5 m/s 751 mmHg 58%
    05:00 +22°C° 0 mm 4 m/s 752 mmHg 58%
    06:00 +23°C° 0 mm 5 m/s 751 mmHg 54%
    07:00 +25°C° 0 mm 5 m/s 751 mmHg 50%
    08:00 +27°C° 0 mm 5 m/s 752 mmHg 45%
    09:00 +28°C° 0 mm 5 m/s 751 mmHg 42%
    10:00 +29°C° 0 mm 6 m/s 751 mmHg 39%
    11:00 +30°C° 0 mm 6 m/s 751 mmHg 36%
    12:00 +30°C° 0 mm 6 m/s 750 mmHg 35%
    13:00 +32°C° 0 mm 6 m/s 750 mmHg 34%
    14:00 +32°C° 0 mm 6 m/s 749 mmHg 32%
    15:00 +30°C° 0 mm 6 m/s 749 mmHg 33%
    16:00 +30°C° 0 mm 5 m/s 748 mmHg 33%
    17:00 +30°C° 0 mm 5 m/s 748 mmHg 33%
    18:00 +29°C° 0 mm 5 m/s 748 mmHg 37%
    19:00 +28°C° 0 mm 4 m/s 748 mmHg 42%
    20:00 +27°C° 0 mm 4 m/s 748 mmHg 46%
    21:00 +26°C° 0 mm 4 m/s 748 mmHg 50%
    22:00 +23°C° 0 mm 4 m/s 748 mmHg 54%
    23:00 +22°C° 0 mm 4 m/s 748 mmHg 58%

    Demain, 21 Juillet, Samedi

    Heure Température Précipitation Vent Pression Humidité
    00:00 +21°C° 0 mm 4 m/s 747 mmHg 61%
    01:00 +20°C° 0 mm 4 m/s 747 mmHg 64%
    02:00 +20°C° 0 mm 4 m/s 747 mmHg 67%
    03:00 +20°C° 0 mm 4 m/s 747 mmHg 66%
    04:00 +20°C° 0 mm 4 m/s 747 mmHg 65%
    05:00 +21°C° 0 mm 3 m/s 747 mmHg 64%
    06:00 +22°C° 0 mm 3 m/s 747 mmHg 60%
    07:00 +24°C° 0 mm 3 m/s 747 mmHg 56%
    08:00 +26°C° 0 mm 3 m/s 747 mmHg 52%
    09:00 +27°C° 0 mm 4 m/s 747 mmHg 48%
    10:00 +28°C° 0 mm 4 m/s 747 mmHg 44%
    11:00 +30°C° 0 mm 4 m/s 746 mmHg 39%
    12:00 +30°C° 0 mm 4 m/s 746 mmHg 40%
    13:00 +29°C° 0 mm 4 m/s 746 mmHg 40%
    14:00 +29°C° 0 mm 4 m/s 746 mmHg 40%
    15:00 +29°C° 0 mm 4 m/s 746 mmHg 42%
    16:00 +29°C° 0 mm 3 m/s 745 mmHg 43%
    17:00 +28°C° 0 mm 3 m/s 745 mmHg 44%
    18:00 +27°C° 0,1 mm 3 m/s 745 mmHg 49%
    19:00 +26°C° 0,1 mm 4 m/s 745 mmHg 54%
    20:00 +25°C° 0,1 mm 4 m/s 745 mmHg 59%
    21:00 +24°C° 0,1 mm 3 m/s 745 mmHg 64%
    22:00 +22°C° 0,1 mm 3 m/s 745 mmHg 69%
    23:00 +20°C° 0,1 mm 3 m/s 744 mmHg 74%

    Après-demain, 22 Juillet, Dimanche

    Heure Température Précipitation Vent Pression Humidité
    00:00 +20°C° 0,1 mm 3 m/s 744 mmHg 78%
    01:00 +20°C° 0,1 mm 3 m/s 744 mmHg 82%
    02:00 +19°C° 0,1 mm 3 m/s 744 mmHg 85%
    03:00 +19°C° 0,2 mm 3 m/s 744 mmHg 86%
    04:00 +20°C° 0,2 mm 3 m/s 743 mmHg 87%
    05:00 +20°C° 0,2 mm 3 m/s 743 mmHg 88%
    06:00 +20°C° 0,4 mm 4 m/s 743 mmHg 87%
    07:00 +20°C° 0,4 mm 4 m/s 743 mmHg 86%
    08:00 +21°C° 0,4 mm 4 m/s 742 mmHg 86%
    09:00 +21°C° 0,1 mm 4 m/s 742 mmHg 84%
    10:00 +22°C° 0,1 mm 5 m/s 742 mmHg 82%
    11:00 +22°C° 0,1 mm 5 m/s 742 mmHg 81%
    12:00 +23°C° 0,2 mm 5 m/s 742 mmHg 77%
    13:00 +25°C° 0,2 mm 5 m/s 741 mmHg 74%
    14:00 +25°C° 0,2 mm 5 m/s 741 mmHg 71%
    15:00 +25°C° 2,2 mm 5 m/s 741 mmHg 72%
    16:00 +24°C° 2,2 mm 6 m/s 740 mmHg 74%
    17:00 +24°C° 2,2 mm 6 m/s 740 mmHg 75%
    18:00 +25°C° 1,8 mm 5 m/s 740 mmHg 78%
    19:00 +23°C° 1,8 mm 5 m/s 740 mmHg 80%
    20:00 +23°C° 1,8 mm 5 m/s 740 mmHg 83%
    21:00 +22°C° 0,3 mm 4 m/s 740 mmHg 86%
    22:00 +21°C° 0,3 mm 4 m/s 741 mmHg 89%
    23:00 +20°C° 0,3 mm 3 m/s 741 mmHg 92%

    23 Juillet, Lundi

    Heure Température Précipitation Vent Pression Humidité
    00:00 +19°C° 0 mm 3 m/s 741 mmHg 93%
    01:00 +19°C° 0 mm 3 m/s 741 mmHg 94%
    02:00 +18°C° 0 mm 3 m/s 741 mmHg 95%
    03:00 +18°C° 0 mm 4 m/s 741 mmHg 93%
    04:00 +19°C° 0 mm 4 m/s 741 mmHg 91%
    05:00 +19°C° 0 mm 4 m/s 742 mmHg 89%
    06:00 +19°C° 0 mm 4 m/s 742 mmHg 86%
    07:00 +20°C° 0 mm 4 m/s 742 mmHg 84%
    08:00 +20°C° 0 mm 4 m/s 742 mmHg 81%
    09:00 +21°C° 0,3 mm 4 m/s 742 mmHg 80%
    10:00 +21°C° 0,3 mm 4 m/s 742 mmHg 79%
    11:00 +21°C° 0,3 mm 5 m/s 742 mmHg 77%
    12:00 +21°C° 0,3 mm 5 m/s 743 mmHg 78%
    13:00 +21°C° 0,3 mm 5 m/s 743 mmHg 79%
    14:00 +21°C° 0,3 mm 5 m/s 743 mmHg 79%
    15:00 +21°C° 0,2 mm 4 m/s 744 mmHg 79%
    16:00 +20°C° 0,2 mm 4 m/s 744 mmHg 78%
    17:00 +20°C° 0,2 mm 4 m/s 745 mmHg 78%
    18:00 +20°C° 0 mm 3 m/s 745 mmHg 78%
    19:00 +19°C° 0 mm 3 m/s 746 mmHg 78%
    20:00 +19°C° 0 mm 2 m/s 746 mmHg 79%
    21:00 +17°C° 0 mm 2 m/s 746 mmHg 83%
    22:00 +16°C° 0 mm 2 m/s 747 mmHg 87%
    23:00 +15°C° 0 mm 2 m/s 747 mmHg 91%

    24 Juillet, Mardi

    Heure Température Précipitation Vent Pression Humidité
    00:00 +15°C° 0 mm 2 m/s 747 mmHg 92%
    01:00 +15°C° 0 mm 2 m/s 747 mmHg 92%
    02:00 +14°C° 0 mm 2 m/s 747 mmHg 93%
    03:00 +14°C° 0 mm 3 m/s 747 mmHg 91%
    04:00 +16°C° 0 mm 3 m/s 748 mmHg 90%
    05:00 +16°C° 0 mm 3 m/s 748 mmHg 88%
    06:00 +17°C° 0,3 mm 3 m/s 748 mmHg 87%
    07:00 +18°C° 0,3 mm 3 m/s 748 mmHg 86%
    08:00 +19°C° 0,3 mm 4 m/s 748 mmHg 84%
    09:00 +20°C° 0,2 mm 4 m/s 748 mmHg 77%
    10:00 +22°C° 0,2 mm 3 m/s 748 mmHg 69%
    11:00 +25°C° 0,2 mm 3 m/s 748 mmHg 62%
    12:00 +25°C° 0,5 mm 3 m/s 748 mmHg 60%
    13:00 +25°C° 0,5 mm 3 m/s 748 mmHg 58%
    14:00 +26°C° 0,5 mm 2 m/s 748 mmHg 57%
    15:00 +25°C° 0,5 mm 3 m/s 748 mmHg 61%
    16:00 +23°C° 0,5 mm 4 m/s 748 mmHg 66%
    17:00 +23°C° 0,5 mm 4 m/s 748 mmHg 70%
    18:00 +21°C° 0,4 mm 4 m/s 748 mmHg 76%
    19:00 +20°C° 0,4 mm 5 m/s 748 mmHg 81%
    20:00 +17°C° 0,4 mm 5 m/s 748 mmHg 87%
    21:00 +17°C° 0,2 mm 4 m/s 748 mmHg 89%
    22:00 +15°C° 0,2 mm 4 m/s 748 mmHg 92%
    23:00 +14°C° 0,2 mm 3 m/s 748 mmHg 95%

    25 Juillet, Mercredi

    Heure Température Précipitation Vent Pression Humidité
    00:00 +14°C° 0,2 mm 3 m/s 749 mmHg 95%
    01:00 +15°C° 0,2 mm 2 m/s 749 mmHg 95%
    02:00 +15°C° 0,2 mm 2 m/s 749 mmHg 96%
    03:00 +15°C° 0 mm 2 m/s 749 mmHg 94%
    04:00 +16°C° 0 mm 2 m/s 749 mmHg 92%
    05:00 +16°C° 0 mm 2 m/s 749 mmHg 90%
    06:00 +17°C° 0 mm 2 m/s 749 mmHg 84%
    07:00 +19°C° 0 mm 2 m/s 749 mmHg 79%
    08:00 +20°C° 0 mm 2 m/s 749 mmHg 74%
    09:00 +21°C° 0 mm 2 m/s 749 mmHg 68%
    10:00 +23°C° 0 mm 2 m/s 750 mmHg 62%
    11:00 +25°C° 0 mm 2 m/s 750 mmHg 56%
    12:00 +26°C° 0 mm 2 m/s 750 mmHg 53%
    13:00 +27°C° 0 mm 2 m/s 750 mmHg 50%
    14:00 +27°C° 0 mm 2 m/s 750 mmHg 47%
    15:00 +28°C° 0,1 mm 2 m/s 750 mmHg 47%
    16:00 +28°C° 0,1 mm 2 m/s 750 mmHg 47%
    17:00 +28°C° 0,1 mm 2 m/s 750 mmHg 47%
    18:00 +27°C° 0,1 mm 2 m/s 750 mmHg 53%
    19:00 +26°C° 0,1 mm 2 m/s 750 mmHg 58%
    20:00 +25°C° 0,1 mm 2 m/s 750 mmHg 64%
    21:00 +24°C° 0,1 mm 2 m/s 750 mmHg 68%
    22:00 +21°C° 0,1 mm 2 m/s 750 mmHg 72%
    23:00 +19°C° 0,1 mm 2 m/s 750 mmHg 76%
    Voir plus